Regional Weather Roundup
Issued by NWS

Home | Current Version | Previous Version | Text Only | Print | Product List | Glossary Off
Versions: 1 2 3 4 5 6 7 8 9 10 11 12 13 14 15 16 17 18 19 20 21 22 23 24 25 26 27 28 29 30 31 32 33 34 35 36 37 38 39 40 41 42 43 44 45 46 47 48 49 50

000
ASUS45 KPSR 252000
RWRAZ

PRELIMINARY ARIZONA REGIONAL HOURLY WEATHER ROUNDUP
NATIONAL WEATHER SERVICE PHOENIX AZ
100 PM MST FRI JUL 25 2014

NOTE: FAIR INDICATES FEW OR NO CLOUDS BELOW 12,000 FEET WITH NO
SIGNIFICANT WEATHER AND/OR OBSTRUCTIONS TO VISIBILITY.

AZZ001>003-036-252100-
NORTHWEST ARIZONA

CITY           SKY/WX    TMP DP  RH WIND       PRES   REMARKS
KINGMAN        MOSUNNY   99  52  20 SW23G30   30.04F
$$

AZZ004>008-015-016-018-252100-
NORTH CENTRAL ARIZONA

CITY           SKY/WX    TMP DP  RH WIND       PRES   REMARKS
GRAND CANYON   MOSUNNY   82  46  28 NW6G17    30.30F
WILLIAMS       MOSUNNY   82  48  30 S9G17     30.36F
PRESCOTT       TSTM      75  57  53 VRB3      30.20R
FLAGSTAFF      MOSUNNY   84  30  14 VRB5G18   30.33F
PAYSON         MOSUNNY   91  50  24 W9        30.19F
PAGE           CLOUDY    83  55  38 W17G37    30.09R THUNDER
$$

AZZ009>014-017-252100-
NORTHEAST ARIZONA

CITY           SKY/WX    TMP DP  RH WIND       PRES   REMARKS
WINSLOW        NOT AVBL
SAINT JOHNS    MOSUNNY   92  39  15 VRB6      30.20F
WINDOW ROCK    PTSUNNY   89  39  17 SW9       30.30F
$$

AZZ023-252100-
GREATER PHOENIX AREA

CITY           SKY/WX    TMP DP  RH WIND       PRES   REMARKS
PHOENIX        MOSUNNY  105  61  23 W8        29.85F HX 106
BUCKEYE          N/A    102  57  22 SW9       29.87F HX 101
GLENDALE       MOSUNNY  106  63  24 SW6       29.87F HX 108
DEER VALLEY    SUNNY    101  60  25 SW7       29.87F HX 101
SCOTTSDALE     SUNNY    102  61  25 SW8       29.90F HX 103
MESA-GATEWAY   MOSUNNY  100  57  23 SW8       29.90F
CHANDLER       MOSUNNY  102  61  25 SW8       29.87F HX 103
$$

AZZ027-028-252100-
SOUTHWEST MARICOPA COUNTY AND PINAL COUNTY

CITY           SKY/WX    TMP DP  RH WIND       PRES   REMARKS
CASA GRANDE    SUNNY    102  61  25 SW7       29.90F HX 103
GILA BEND      PTCLDY   106  59  21 W7G13     29.87F HX 106
$$

AZZ503-504-507>509-252100-
SOUTHEAST ARIZONA

CITY           SKY/WX    TMP DP  RH WIND       PRES   REMARKS
TUCSON         MOSUNNY  100  57  23 CALM      29.98F
DAVIS-MONTHAN  SUNNY     98  58  26 VRB2      29.96F
RYAN FIELD       N/A     99  57  25 S5        29.96F
NOGALES        PTSUNNY   93  57  29 N5        30.07F
SIERRA VISTA   PTSUNNY   90  54  29 SW25G32   30.15F
SAFFORD        SUNNY    102  43  13 S9        29.99F
$$

AZZ020-021-025-026-031-252100-
SOUTHWEST ARIZONA

CITY           SKY/WX    TMP DP  RH WIND       PRES   REMARKS
YUMA           MOSUNNY  107  64  24 S20       29.80F HX 111
$$

CAZ031-033-041-043-047-048-061-252100-
SOUTHERN CALIFORNIA

CITY           SKY/WX    TMP DP  RH WIND       PRES   REMARKS
DOWNTOWN L.A.  SUNNY     87  65  47 VRB3      29.88S
L.A. AIRPORT   MOSUNNY   79  64  60 W12       29.91R
SAN DIEGO      PTSUNNY   73  65  75 S6        29.93F
BURBANK        SUNNY     88  61  40 S12       29.90S
ONTARIO        PTSUNNY   93  61  34 SW9       29.90S
RIVERSIDE      PTSUNNY   92  56  29 VRB6      29.90S
PALM SPRINGS   LGT RAIN  94  70  45 NE3       29.88R HX 100
EL CENTRO NAS  MOSUNNY  105  66  28 VRB5      29.76F HX 110
IMPERIAL       SUNNY    105  68  30 S13G18    29.76F HX 112
BLYTHE         SUNNY    106  62  23 S16G22    29.81F HX 108
$$

NVZ020-UTZ003-252100-
SOUTHERN NEVADA-UTAH

CITY           SKY/WX    TMP DP  RH WIND       PRES   REMARKS
LAS VEGAS      NOT AVBL
SALT LAKE CITY MOSUNNY   88  47  24 NW9       30.02F
$$

NMZ009-TXZ055-252100-
NEW MEXICO-WEST TEXAS

CITY           SKY/WX    TMP DP  RH WIND       PRES   REMARKS
ALBUQUERQUE    MOSUNNY   92  44  19 VRB3      30.17F
EL PASO        MOSUNNY   97  47  18 VRB3      30.08F
$$


........................KEY........................
SKY/WX - SKY CONDITION/WEATHER
TMP    - TEMPERATURE IN FAHRENHEIT
DP     - DEW POINT IN FAHRENHEIT
RH     - RELATIVE HUMIDITY IN PERCENT
WIND   - DIRECTION AND SPEED IN MILES PER HOUR (MPH)
VRB    - VARIABLE WIND DIRECTION
PRES   - MEAN SEA LEVEL PRESSURE IN INCHES OF MERCURY
         F - FALLING PRESSURE   R - RISING PRESSURE
         S - STEADY PRESSURE
VSB    - VISIBILITY IN MILES
HX     - HEAT INDEX IN FAHRENHEIT
WCI    - WIND CHILL INDEX IN FAHRENHEIT
TC     - TEMPERATURE IN CELSIUS WHICH IS ALSO KNOWN AS
         TEMPERATURE IN CENTIGRADE
AFB    - AIR FORCE BASE
         LUKE AFB IS LUKE AIR FORCE BASE
         DAVIS-MONTHAN IS DAVIS-MONTHAN AIR FORCE BASE
NAS    - NAVAL AIR STATION
         EL CENTRO NAS IS EL CENTRO NAVAL AIR STATION
N/A    - NOT AVAILABLE



USA.gov is the U.S. government's official web portal to all federal, state and local government web resources and services.